Regional Weather Roundup
Issued by NWS Portland, ME

Home | Current Version | Previous Version | Text Only | Print | Product List | Glossary On
Versions: 1 2 3 4 5 6 7 8 9 10 11 12 13 14 15 16 17 18 19 20 21 22 23 24 25 26 27 28 29 30 31 32 33 34 35 36 37 38 39 40 41 42 43 44 45 46 47 48 49 50
000
ASUS41 KGYX 310510
RWRGYX
WEATHER ROUNDUP FOR MAINE AND NEW HAMPSHIRE
NATIONAL WEATHER SERVICE GRAY ME
1200 AM EST SAT JAN 31 2015

MEZ002-005-006-010-012-015-018-020-021-024-026-027-029-310600-
MAINE

CITY           SKY/WX    TMP DP  RH WIND       PRES   REMARKS
PORTLAND       LGT SNOW  21  13  71 NW23G32   29.69F WCI   5
SANFORD        CLOUDY    18   7  62 NW13G20   29.70F WCI   4
BAR HARBOR     CLOUDY    30  30 100 N13       29.60F
WISCASSET      LGT SNOW  22  19  89 NW9G22    29.67S FOG
ROCKLAND       CLOUDY    30  28  93 CALM      29.59F
FRYEBURG       LGT SNOW  19  13  77 CALM      29.74S
LEWISTONAUBURN CLOUDY    18  10  73 NW22G31   29.69S WCI   0
AUGUSTA        LGT SNOW  20  16  84 NW17G25   29.69S FOG     WCI   5
WATERVILLE     CLOUDY    19  12  73 N21G30    29.67S WCI   3
BANGOR         SNOW      29  27  92 N21       29.66F VSB 1/4 WCI  16
GREENVILLE       N/A     11   9  92 NW12G20   29.69S WCI  -3
MILLINOCKET    LGT SNOW  27  24  89 N7        29.73S FOG
HOULTON        LGT SNOW  23  21  92 N6        29.71F FOG
PRESQUE ISLE   CLOUDY    21  14  73 N18       29.76F WCI   6
FRENCHVILLE    LGT SNOW  12   7  80 N15G24    29.77S WCI  -4
CARIBOU        FLURRIES  18  14  84 N16       29.76R WCI   3
$$

NHZ002-005-008-009-011-012-014-310600-
NEW HAMPSHIRE

CITY           SKY/WX    TMP DP  RH WIND       PRES   REMARKS
PORTSMOUTH     LGT SNOW  17  10  72 W16G23    29.70F WCI   2
ROCHESTER      LGT SNOW  17   8  67 NW17G29   29.70F WCI   1
NASHUA         FLURRIES  16   5  61 NW17G25   29.80F WCI   0
MANCHESTER     CLOUDY    15   4  61 NW17G35   29.78F WCI  -1
CONCORD        CLOUDY    15   3  59 NW22G33   29.81S WCI  -3
LACONIA        CLOUDY    14   1  57 W13G22    29.75F WCI   0
PLYMOUTH       LGT SNOW  11   7  83 W15G28    29.85S WCI  -5
BERLIN         LGT SNOW  10   0  63 NW13G20   29.86R WCI  -5
WHITEFIELD     LGT SNOW   9   3  77 NW12      29.91R WCI  -6
JAFFREY        CLOUDY    10   1  67 VRB6      29.79R
KEENE          CLEAR     12   0  57 N14G23    29.88S WCI  -3
LEBANON        MOCLDY    10  -2  58 N16G23    29.94R WCI  -7
MT WASHINGTON  SNOW      -4  -4 100 N36G45      N/A  VSB 1/8 WCI -33
$$

VTZ005-007-008-310600-
VERMONT

CITY           SKY/WX    TMP DP  RH WIND       PRES   REMARKS
ST JOHNSBURY     N/A     10   0  63 MISG      29.95R
MONTPELIER     LGT SNOW   2  -2  83 NW12G21   29.98S FOG     WCI -15
BURLINGTON     MOCLDY     5  -4  66 N14       30.11R WCI -12
$$

MAZ007-012-024-CTZ003-RIZ002-NYZ038-NYZ072-310600-
SOUTHERN NEW ENGLAND AND NY

CITY           SKY/WX    TMP DP  RH WIND       PRES   REMARKS
BOSTON         LGT SNOW  19   7  59 NW25G40   29.75F WCI   1
WORCESTER      CLEAR     11   2  67 NW28G44   29.72F WCI -10
NANTUCKET      CLOUDY    28  18  66 NW25G33   29.64F WCI  13
PROVIDENCE     PTCLDY    19   5  54 NW21G28   29.77F WCI   3
HARTFORD       PTCLDY    14   1  56 NW16G24   29.91S WCI  -2
ALBANY         PTCLDY     8  -4  58 NW13      30.09R WCI  -8
NEW YORK CITY  PTCLDY    20   7  57 NW28G35   30.01R WCI   2
$$

ANZ081-ANZ082-ANZ150-NHZ014-MEZ023>029-310600-
COASTAL MARINE OBSERVATIONS

STATION/POSITION TIME  TEMP    WIND        PRES    WAVE
                       AIR SEA DIR/SP/G            HT/PER
                 (UTC) (F)     (DEG/KT/KT) (MB)    (FT/S)
MOUNT DESERT ROC 0500   35                  999.3F
MATINICUS ROCK   0500          360/ 23/ 26 1000.3S
PORTLAND WX BUOY 0450   25 40  340/ 29/ 35 1003.4F   4/ 4
WELLS            0400   22 34  330/ 15/ 18 1004.8S
ISLE OF SHOALS   0500   19     300/ 28/ 32 1003.9F
JEFFREYS LEDGE   0421      44                N/A     9/ 6
CASHES LEDGE BUO 0450   35 44  210/ 29/ 35  998.7F   8/ 6
$$

.............KEY..............
   WCI - WIND CHILL
   TC  - TEMPERATURE IN CELSIUS
   VSB - VISIBILITY IN MILES
   HX  - HEAT INDEX
   FAIR- INDICATES FEW OR NO CLOUDS BELOW 12,000 FT, WITH NO
         SIGNIFICANT WEATHER AND/OR OBSTRUCTIONS TO VISIBILITY.





USA.gov is the U.S. government's official web portal to all federal, state and local government web resources and services.